Terminal Aerodrome Forecast
Issued by NWS Twin Cities, MN

Home | Current Version | Previous Version | Text Only | Print | Product List | Glossary On
Versions: 1 2 3 4 5 6 7 8 9 10 11 12
000
FTUS43 KMPX 281139
TAFSTC
TAF
KSTC 281139Z 2812/2912 34010KT P6SM BKN200
     FM281400 35012KT P6SM VCSH BKN050 OVC090
     FM281700 35010KT P6SM BKN050 BKN070
     FM282000 35009KT P6SM SCT060
     FM290100 36004KT P6SM SKC=

USA.gov is the U.S. government's official web portal to all federal, state and local government web resources and services.